Preview of NWS' New Version of Forecast
This preview is not operational and should not be used for support decisions.

Regional Weather Roundup (RWR)

Issued by National Weather Service (NWS)

                            
000
ASUS43 KDTX 171710
RWRMI 
MICHIGAN HOURLY REGIONAL WEATHER ROUNDUP
NATIONAL WEATHER SERVICE DETROIT/PONTIAC MI
1200 PM EST SUN FEB 17 2019

NOTE: "FAIR" INDICATES FEW OR NO CLOUDS BELOW 12,000 FEET WITH NO
SIGNIFICANT WEATHER AND/OR OBSTRUCTION TO VISIBILITY.

MIZ047>049-052>055-059>063-066>070-074>076-081>083-171800-
SOUTHEAST LOWER MICHIGAN
  
CITY           SKY/WX    TMP DP  RH WIND       PRES   REMARKS
ADRIAN         CLOUDY    24  18  77 E13       29.95R WCI  12          
ALMA           CLOUDY    23  17  77 NE7       30.01S WCI  15          
ANN ARBOR      CLOUDY    24  18  77 NE8       29.97R WCI  15          
BAD AXE        CLOUDY    23  17  77 E7G16     30.03S WCI  15          
CARO           CLOUDY    24  17  74 E8        30.01R WCI  15          
DETROIT CITY   CLOUDY    24  17  74 E13       29.99R WCI  12          
DETROIT        CLOUDY    24  16  71 E12       29.99R WCI  13          
FLINT          CLOUDY    24  15  68 E12G20    30.00R WCI  13          
GROSSE ILE     CLOUDY    26  20  80 E9        29.96S WCI  16          
HILLSDALE      CLOUDY    25  18  75 E13       29.89F WCI  14          
HOWELL         CLOUDY    24  16  69 E9        29.97R WCI  15          

CITY           SKY/WX    TMP DP  RH WIND       PRES   REMARKS
JACKSON        CLOUDY    25  18  74 E10       29.94S WCI  15          
LAMBERTVILLE   CLOUDY    28  21  75 E12G17    29.93F WCI  18          
LANSING        CLOUDY    23  17  78 E9        29.98S WCI  13          
LAPEER         CLOUDY    24  15  68 E5        29.99S WCI  18          
MASON          CLOUDY    25  18  73 E8        29.96S WCI  16          
MONROE         CLOUDY    26  22  87 E7        29.95S WCI  18          
MT. CLEMENS    CLOUDY    24  20  84 E14       29.99R WCI  12          
PONTIAC        CLOUDY    22  16  78 E12       29.96R WCI  10          
PORT HOPE        N/A     23  17  78 E14       30.04S WCI  11          
PORT HURON     CLOUDY    25  18  74 E12       30.02R WCI  14          
TRI CITIES     CLOUDY    24  16  71 E16       30.02S WCI  11          
MIDLAND        CLOUDY    25  17  73 E10       30.03R WCI  15          
TROY           CLOUDY    24  16  69 E10       30.01S WCI  14          
SAGINAW HB     CLOUDY    27  18  69 E8        30.02S WCI  18          
$$
MIZ043>046-050>051-056>058-064>065-071>073-077>080-171800-
SOUTHWEST LOWER MICHIGAN
  
CITY           SKY/WX    TMP DP  RH WIND       PRES   REMARKS
BATTLE CREEK   CLOUDY    25  16  68 E10       29.93F WCI  15          
BENTON HARBOR  LGT SNOW  27  22  81 E12       29.89F WCI  17          
BIG RAPIDS     CLOUDY    24  16  71 E15       29.99S WCI  11          
COLDWATER      CLOUDY    27  20  75 E10G17    29.91F WCI  17          
FREMONT        CLOUDY    26  15  64 E9G21     29.98S WCI  16          
HOLLAND        SNOW      23  18  81 E12       29.94F VSB 1/2 WCI  12  
GRAND RAPIDS   CLOUDY    24  15  68 E16       29.95F WCI  11          
IONIA          CLOUDY    24  14  67 E10       29.97S WCI  13          
KALAMAZOO      FLURRIES  25  17  72 E9G16     29.93F WCI  15          
LUDINGTON      CLOUDY    25  14  63 E8        30.01F WCI  16          
MARSHALL       CLOUDY    26  19  76 E12       29.92F WCI  15          
MOUNT PLEASANT CLOUDY    25  15  64 NE12      30.00F WCI  14          
MUSKEGON       LGT SNOW  24  16  71 E16       29.97F WCI  11          
SOUTH HAVEN    LGT SNOW  26  22  82 E9        29.91F WCI  17          
$$
MIZ016>042-171800-
NORTHERN LOWER MICHIGAN
  
CITY           SKY/WX    TMP DP  RH WIND       PRES   REMARKS
ALPENA         CLOUDY    22  14  71 E16       30.09S WCI   8          
BEAVER ISLAND  CLOUDY    17  13  83 NE9       30.11S WCI   5          
BELLAIRE       FAIR      23  14  68 NE7       30.07F WCI  14          
CADILLAC       CLOUDY    20  12  69 E10       29.97F WCI   9          
CHARLEVOIX     FAIR      21  14  74 NE8       30.11S WCI  11          
FRANKFORT      FAIR      23  12  64 NE7       30.05F WCI  14          
GAYLORD        LGT SNOW  17  13  84 NE9       30.02R FOG     WCI   6  
GRAYLING       CLOUDY    20  15  82 E9        30.01S WCI   9          
HARBOR SPRINGS PTSUNNY   19  13  75 E6        30.09R WCI  11          
HOUGHTON LAKE  CLOUDY    20  14  77 E12       30.01R WCI   8          
MANISTEE       PTSUNNY   24  14  65 NE7       30.03S WCI  16          
OSCODA         FLURRIES  23  17  75 E15       30.06S WCI  10          
PELLSTON       CLOUDY    21  15  78 E9        30.10S WCI  11          
ROGERS CITY    LGT SNOW  21  17  83 E14       30.12R WCI   8          
TRAVERSE CITY  PTSUNNY   22  14  71 N8        30.05S WCI  12          
$$
MIZ007>008-015-171800-
EASTERN UPPER MICHIGAN
  
CITY           SKY/WX    TMP DP  RH WIND       PRES   REMARKS
KINROSS        FLURRIES  15   7  70 E9        30.14R WCI   3          
MACKINAC ISLAN LGT SNOW  17  10  72 NE13G21   30.12R WCI   4          
NEWBERRY       LGT SNOW  14   9  78 MISG      30.12S                  
S. S. MARIE    CLOUDY    17   6  62 E7        30.14F WCI   8          
MUNISING         N/A     20  12  71 E6        30.12R WCI  12          
$$
MIZ004>006-011>014-085-171800-
CENTRAL UPPER MICHIGAN
  
CITY           SKY/WX    TMP DP  RH WIND       PRES   REMARKS
MANISTIQUE     FAIR      19   6  59 NE7       30.11S WCI   9          
ESCANABA       FAIR      22  12  65 N8        30.11F WCI  12          
MENOMINEE      FLURRIES  21  13  71 NE16      30.09S WCI   7          
SAWYER-GWINN   LGT SNOW  19  14  79 NE8       30.07S WCI   9          
$$
MIZ001>003-009>011-084-171800-
WESTERN UPPER MICHIGAN
  
CITY           SKY/WX    TMP DP  RH WIND       PRES   REMARKS
IRON MOUNTAIN  LGT SNOW  18  12  77 N6        30.06F WCI  10          
HOUGHTON       PTSUNNY   17   6  62 N10       30.11S WCI   5          
COPPER HARBOR    N/A     18  12  77 NE13      30.17S WCI   5          
IRONWOOD       FAIR      16   9  74 E12       30.11S WCI   3          
$$

ABBREVIATIONS USED IN REMARKS
   TC - TEMPERATURE IN CELSIUS
  WCI - WIND CHILL INDEX
   HX - HEAT INDEX
  VSB - VISIBILITY